Printer-friendly version
Follow the MPC on Twitter Follow the MPC on Facebook The MPC blog
Minor Planet Center

MPEC 2010-K46 : 2010 KK37

The following Minor Planet Electronic Circular may be linked-to from your own Web pages, but must not otherwise be redistributed electronically.

A form allowing access to any MPEC is at the bottom of this page.


Read MPEC 2010-K45 Read MPEC 2010-K47


M.P.E.C. 2010-K46                                Issued 2010 May 23, 21:26 UT

     The Minor Planet Electronic Circulars contain information on unusual
         minor planets and routine data on comets.  They are published
   on behalf of Commission 20 of the International Astronomical Union by the
          Minor Planet Center, Smithsonian Astrophysical Observatory,
                          Cambridge, MA 02138, U.S.A.

             Prepared using the Tamkin Foundation Computer Network

                              MPC@CFA.HARVARD.EDU
       URL http://www.minorplanetcenter.org/iau/mpc.html  ISSN 1523-6714

                                   2010 KK37

Observations:
     K10K37K* C2010 05 23.20731 15 57 38.77 +10 59 37.5          17.5 V EK046G96
     K10K37K  C2010 05 23.21266 15 57 50.47 +10 58 48.5          17.6 V EK046G96
     K10K37K  C2010 05 23.21809 15 58 02.31 +10 57 58.9          17.6 V EK046G96
     K10K37K  C2010 05 23.22354 15 58 14.16 +10 57 08.8          17.8 V EK046G96
     K10K37K  C2010 05 23.25792315 59 12.99 +10 50 51.1          17.8 V EK046H21
     K10K37K  C2010 05 23.25873 15 59 28.60 +10 51 49.3          17.6 V EK046G96
     K10K37K  C2010 05 23.25907 15 59 29.31 +10 51 46.3                 EK046703
     K10K37K  C2010 05 23.25942 15 59 29.94 +10 51 42.5          16.9 V EK046703
     K10K37K  C2010 05 23.25949315 59 16.28 +10 50 36.6          17.6 V EK046H21
     K10K37K  C2010 05 23.25974 15 59 30.67 +10 51 40.1          17.9 V EK046703
     K10K37K  C2010 05 23.26009 15 59 31.34 +10 51 37.1          16.7 V EK046703
     K10K37K  C2010 05 23.26049 15 59 32.28 +10 51 33.2          17.6 V EK046G96
     K10K37K  C2010 05 23.26098515 59 19.39 +10 50 22.8          17.7 V EK046H21
     K10K37K  C2010 05 23.26224 15 59 35.91 +10 51 17.5          17.5 V EK046G96
     K10K37K  C2010 05 23.26247915 59 22.50 +10 50 08.9          17.6 V EK046H21
     K10K37K  C2010 05 23.26397115 59 25.63 +10 49 55.2          17.6 V EK046H21
     K10K37K  C2010 05 23.26400 15 59 39.55 +10 51 01.5          17.6 V EK046G96
     K10K37K  C2010 05 23.26546415 59 28.73 +10 49 41.6          17.6 V EK046H21
     K10K37K  C2010 05 23.26719515 59 32.34 +10 49 25.6          17.6 V EK046H21
     K10K37K  C2010 05 23.26951715 59 37.15 +10 49 04.0          17.8 V EK046H21
     K10K37K  C2010 05 23.27086715 59 39.94 +10 48 51.7          17.6 V EK046H21
     K10K37K  C2010 05 23.27176415 59 41.80 +10 48 43.6          17.4 V EK046H21
     K10K37K  C2010 05 23.29944 16 00 51.40 +10 45 43.9          17.9 V EK046G96
     K10K37K  C2010 05 23.30094 16 00 54.36 +10 45 30.8          17.6 V EK046G96
     K10K37K  C2010 05 23.30380 16 01 00.07 +10 45 07.2          17.5 R EK046854
     K10K37K  C2010 05 23.30564 16 01 03.73 +10 44 50.6          17.4 R EK046854
     K10K37K  C2010 05 23.30749 16 01 07.39 +10 44 34.4          17.5 R EK046854
     K10K37K  C2010 05 23.31489 16 01 21.98 +10 43 28.3          17.7 R EK046854
     K10K37K  C2010 05 23.31678 16 01 25.70 +10 43 12.1          17.6 R EK046854
     K10K37K KC2010 05 23.45809 16 05 49.91 +10 22 38.9          17.8 C EK046H10
     K10K37K KC2010 05 23.46233 16 05 57.70 +10 22 01.9          17.9 C EK046H10
     K10K37K KC2010 05 23.85898 16 17 39.37 +09 34 52.9          18.3 V EK046595
     K10K37K KC2010 05 23.85964 16 17 40.90 +09 34 26.9          18.5 V EK046198
     K10K37K KC2010 05 23.86208 16 17 43.44 +09 34 35.4          18.2 V EK046595
     K10K37K KC2010 05 23.86453 16 17 47.34 +09 33 58.8          18.6 V EK046198
     K10K37K KC2010 05 23.86709 16 17 50.68 +09 33 43.7          18.4 V EK046198
     K10K37K KC2010 05 23.86965 16 17 54.01 +09 33 28.7          18.3 V EK046198
     K10K37K KC2010 05 23.87441 16 18 00.23 +09 33 01.8          18.2 V EK046198
     K10K37K KC2010 05 23.87991 16 18 07.34 +09 32 30.0          18.4 V EK046198

Observer details:
198 Wildberg.  Observer R. Apitzsch.  0.35-m f/4.2 reflector + CCD.
595 Farra d'Isonzo.  Observer E. Pettarin.  0.40-m f/4.5 reflector + CCD.
703 Catalina Sky Survey.  Observer R. E. Hill.  Measurers J. D. Ahern,
    E. C. Beshore, A. Boattini, G. J. Garradd, A. R. Gibbs, A. D. Grauer,
    R. E. Hill, R. A. Kowalski, S. M. Larson, R. H. McNaught.  0.68-m Schmidt
    + CCD.
854 Sabino Canyon Observatory, Tucson.  Observer J. E. McGaha.  0.36-m f/10.0
    Schmidt-Cassegrain + CCD.
G96 Mt. Lemmon Survey.  Observers A. D. Grauer, R. J. Wright.  Measurers
    J. D. Ahern, E. C. Beshore, A. Boattini, G. J. Garradd, A. R. Gibbs,
    A. D. Grauer, R. E. Hill, R. A. Kowalski, S. M. Larson, R. H. McNaught.
    1.5-m reflector + CCD.
H10 Tzec Maun Observatory, Mayhill.  Observers D. Chestnov, A. Novichonok.
    0.36-m f/3.8 Maksutov-Newtonian + CCD.
H21 Astronomical Research Observatory, Westfield.  Observer R. Holmes.
    Measurers S. Foglia, L. Foglia.

Orbital elements:
2010 KK37                                                Earth MOID = 0.0002 AU
Epoch 2010 July 23.0 TT = JDT 2455400.5                 MPC
M  51.76981              (2000.0)            P               Q
n   0.49401825     Peri.  305.85718     -0.98733054     +0.08317374
a   1.5847985      Node   239.27388     -0.03609854     -0.94701959
e   0.4431088      Incl.    9.04437     -0.15451634     -0.31021932
P   2.00           H   25.6           G   0.15           U   6
Residuals in seconds of arc
100523 G96  0.7+  0.2-    100523 G96  0.3+  0.1-    100523 854  0.1+  0.4+
100523 G96  0.0   0.0     100523 H21  0.2-  0.0     100523 854  0.0   0.0
100523 G96  0.2-  0.1+    100523 H21  0.1+  0.1+    100523 854  0.1+  0.6+
100523 G96  0.4+  0.1-    100523 G96  0.4+  0.2-    100523 H10  0.2+  0.4+
100523 H21  0.1-  0.2+    100523 H21  0.0   0.3+    100523 H10  0.0   1.0-
100523 G96  0.3-  0.0     100523 H21  0.1+  0.2+    100523 595  0.5-  0.7+
100523 703  0.3+  0.2-    100523 H21  0.0   0.0     100523 198  0.4+  0.4-
100523 703  1.1-  0.8-    100523 H21  0.1-  0.1+    100523 595  0.2-  1.2+
100523 H21  0.0   0.2+    100523 H21  0.1-  0.2+    100523 198  0.3+  0.2-
100523 703  0.2-  0.3-    100523 G96  0.4+  0.2-    100523 198  0.1+  0.4-
100523 703  1.0-  0.2-    100523 G96  0.0   0.0     100523 198  0.2-  0.6-
100523 G96  0.2+  0.2-    100523 854  0.0   0.4+    100523 198  0.1+  0.0
100523 H21  0.1-  0.2+    100523 854  0.2+  0.2+    100523 198  0.1-  0.1-

Ephemeris:
2010 KK37                a,e,i = 1.58, 0.44, 9                   q = 0.8826
Date    TT    R. A. (2000) Decl.     Delta      r     Elong.  Phase     V
2010 05 24    16 20.58   +09 26.2    0.0185   1.029   149.5    29.9    18.3
2010 05 25    16 36.61   +08 14.2    0.0248   1.034   150.0    29.4    18.9
2010 05 26    16 46.07   +07 29.5    0.0312   1.040   150.1    29.0    19.4
2010 05 27    16 52.28   +06 58.7    0.0377   1.046   150.3    28.7    19.8
2010 05 28    16 56.64   +06 35.8    0.0441   1.052   150.5    28.3    20.2
2010 05 29    16 59.87   +06 17.8    0.0506   1.058   150.7    28.0    20.5
2010 05 30    17 02.33   +06 02.9    0.0571   1.064   150.9    27.6    20.7
2010 05 31    17 04.27   +05 50.1    0.0637   1.070   151.1    27.2    21.0
2010 06 01    17 05.82   +05 38.7    0.0702   1.076   151.3    26.9    21.2
2010 06 02    17 07.08   +05 28.3    0.0768   1.082   151.5    26.5    21.4
2010 06 03    17 08.13   +05 18.6    0.0835   1.088   151.7    26.2    21.6

Timothy B. Spahr             (C) Copyright 2010 MPC           M.P.E.C. 2010-K46

Read MPEC 2010-K45 Read MPEC 2010-K47


MPEC number:

Enter an MPEC number in one of the following forms:

  • 1997-B01 (the full form)
  • J97B01 (the packed version of the full form)
  • B01 (the abbreviated form)

Valid HTML 4.01!